Trapani, Italy

11:24 AM CET on February 25, 2018 (GMT +0100)
Birgi Mil

Weather History for LICT - March, 2013

Change the Weather History Date:

Wednesday, March 20, 2013

  Actual Average Record
Temperature  
Mean Temperature 58 °F -  
Max Temperature 66 °F 65 °F 71 °F (1998)
Min Temperature 49 °F 49 °F 37 °F (2003)
Degree Days  
Heating Degree Days 8    
Growing Degree Days 8 (Base 50)    
Moisture  
Dew Point 53 °F    
Average Humidity 86    
Maximum Humidity 94    
Minimum Humidity 72    
Precipitation  
Precipitation 0.00 in 0.05 in - ()
Sea Level Pressure  
Sea Level Pressure 29.75 in    
Wind  
Wind Speed 3 mph ()    
Max Wind Speed 17 mph    
Max Gust Speed -    
Visibility 7.1 miles    
Events Rain    
Averages and records for this station are not official NWS values.
T = Trace of Precipitation, MM = Missing Value Source: Averaged Metar Reports

Daily Weather History Graph

Daily Weather History Graph

Search for Another Location

Airport or City:

Trip Planner

Search our weather history database for the weather conditions in past years. The results will help you decide how hot, cold, wet, or windy it might be!

Date:

Astronomy

Mar. 20, 2013 Rise Set
Actual Time 6:13 AM CET 6:21 PM CET
Civil Twilight 5:47 AM CET 6:48 PM CET
Nautical Twilight 5:16 AM CET 7:18 PM CET
Astronomical Twilight 4:45 AM CET 7:49 PM CET
Moon 11:47 AM CET (3/20) 1:35 AM CET (3/20)
Length of Visible Light 13h 00m
Length of Day
12h 08m
First Quarter, 57% of the Moon is Illuminated
Mar 20
First Quarter
Mar 27
Full
Apr 3
Last Quarter
Apr 10
New
Apr 18
First Quarter

Hourly Weather History & Observations

Time (CET) Temp. Dew Point Humidity Pressure Visibility Wind Dir Wind Speed Gust Speed Precip Events Conditions
12:55 AM 51.8 °F 48.2 °F 88% 29.77 in - ESE 4.6 mph - N/A   Clear
1:00 AM 51 °F 49 °F 88% 29.77 in 10 mi ESE 4.6 mph - -   Mostly Cloudy
1:55 AM 51.8 °F 48.2 °F 88% 29.74 in - Calm Calm - N/A   Clear
2:55 AM 51.8 °F 48.2 °F 88% 29.77 in 6.2 mi WNW 5.8 mph - N/A   Light Drizzle
3:55 AM 51.8 °F 50.0 °F 94% 29.71 in 6.2 mi ESE 4.6 mph - N/A Rain Light Rain
4:55 AM 51.8 °F 48.2 °F 88% 29.71 in 6.2 mi ESE 5.8 mph - N/A Rain Light Rain
5:55 AM 51.8 °F 50.0 °F 94% 29.68 in - SE 2.3 mph - N/A   Clear
6:55 AM 51.8 °F 46.4 °F 82% 29.71 in - Calm Calm - N/A   Clear
7:00 AM 52 °F 47 °F 78% 29.72 in 12 mi Calm Calm - -   Partly Cloudy
7:55 AM 53.6 °F 50.0 °F 88% 29.71 in - Calm Calm - N/A   Clear
8:55 AM 57.2 °F 53.6 °F 88% 29.71 in - Calm Calm - N/A   Clear
9:55 AM 59.0 °F 55.4 °F 88% 29.71 in 6.2 mi SSW 2.3 mph - N/A Rain Light Rain
10:55 AM 62.6 °F 55.4 °F 77% 29.71 in - South 4.6 mph - N/A   Clear
11:55 AM 60.8 °F 57.2 °F 88% 29.74 in - West 4.6 mph - N/A   Clear
12:55 PM 60.8 °F 55.4 °F 82% 29.74 in - WSW 8.1 mph - N/A   Clear
1:00 PM 61 °F 56 °F 80% 29.74 in 11 mi WSW 8.1 mph - -   Partly Cloudy
1:55 PM 62.6 °F 53.6 °F 72% 29.74 in - WSW 9.2 mph - N/A   Clear
2:55 PM 62.6 °F 55.4 °F 77% 29.74 in - WSW 6.9 mph - N/A   Clear
3:55 PM 60.8 °F 55.4 °F 82% 29.74 in 6.2 mi WNW 1.2 mph - N/A Rain Light Rain
4:55 PM 59.0 °F 55.4 °F 88% 29.74 in 6.2 mi Calm Calm - N/A Rain Light Rain
5:55 PM 59.0 °F 55.4 °F 88% 29.74 in - Calm Calm - N/A   Clear
6:55 PM 57.2 °F 53.6 °F 88% 29.77 in 6.2 mi WSW 4.6 mph - N/A   Partly Cloudy
7:00 PM 57 °F 54 °F 88% 29.78 in 7 mi WSW 4.6 mph - -   Partly Cloudy
7:55 PM 57.2 °F 53.6 °F 88% 29.77 in 6.2 mi SE 2.3 mph - N/A   Scattered Clouds
8:55 PM 57.2 °F 53.6 °F 88% 29.80 in 6.2 mi Calm Calm - N/A   Scattered Clouds
9:55 PM 55.4 °F 53.6 °F 94% 29.80 in 6.2 mi ESE 1.2 mph - N/A   Mostly Cloudy
10:55 PM 57.2 °F 55.4 °F 94% 29.80 in 6.2 mi WSW 6.9 mph - N/A   Scattered Clouds
11:55 PM 57.2 °F 53.6 °F 88% 29.80 in 6.2 mi West 17.3 mph - N/A   Scattered Clouds